NOAA NWS Hourly Roundups by Site

Regional Weather Roundup for Baltimore MD/Washington, DC

To Select Another Site Choose from List

Select Site:  

000
ASUS41 KLWX 181111
RWRLWX

REGIONAL WEATHER ROUNDUP
NATIONAL WEATHER SERVICE BALTIMORE MD/WASHINGTON DC
600 AM EST FRI JAN 18 2019

Note: "FAIR" indicates few or no clouds below 12,000 feet
with no significant weather and/or obstructions to visibility.
 TC=TEMPERATURE CELSIUS

 * =Non NWS site. Station does not report precipitation (e.g. rain,
    snow, etc.), thunder, or fog.

DCZ001-MDZ009-015-VAZ040>042-051-053>054-181200-
WASHINGTON METRO

CITY           SKY/WX    TMP DP  RH WIND       PRES   REMARKS
WASHINGTON NAT CLOUDY    34  31  88 N5        30.08S FOG     WCI  30
DULLES         FOG       32  32 100 CALM      30.06S VSB 1
ANDREWS AFB    CLOUDY    32  31  98 CALM      30.05S FOG
FT BELVOIR     CLOUDY    33  31  93 CALM      30.07F
QUANTICO       CLOUDY    35  34  96 CALM      30.09S
LEESBURG*      CLOUDY    32  32 100 CALM      30.06F FOG
MANASSAS*      CLOUDY    32  30  92 CALM      30.07F FOG
GAITHERSBURG*  CLOUDY    30  28  92 CALM      30.06S FOG

$$

MDZ006>007-011-014-181200-
BALTIMORE METRO

CITY           SKY/WX    TMP DP  RH WIND       PRES   REMARKS
BWI AIRPORT    FOG       32  31  96 E6        30.07R VSB 1   WCI  26
MARTIN STATE   LGT SNOW  32  32 100 CALM      30.10R FOG
ANNAPOLIS      CLOUDY    36  32  85 N3        30.08R FOG
FORT MEADE*    CLOUDY    32  32 100 CALM      30.10S

$$

MDZ012-015-019>023-181200-
MARYLAND EASTERN SHORE

CITY           SKY/WX    TMP DP  RH WIND       PRES   REMARKS
OCEAN CITY     CLOUDY    39  37  92 CALM      30.06F
SALISBURY      CLOUDY    36  35  96 CALM      30.06S
EASTON*        CLOUDY    34  32  93 CALM      30.11R

$$

MDZ017>025-181200-
SOUTHERN MARYLAND

CITY           SKY/WX    TMP DP  RH WIND       PRES   REMARKS
PATUXENT RIVER CLOUDY    36  35  96 NE3       30.06S
ST INIGOES     CLOUDY    38  35  89 NE3       30.05S
LEONARDTOWN*   NOT AVBL

$$

MDZ003>005-181200-
NORTH CENTRAL MARYLAND

CITY           SKY/WX    TMP DP  RH WIND       PRES   REMARKS
FREDERICK*     NOT AVBL
HAGERSTOWN APT CLOUDY    30  26  85 NW5       30.03F FOG     WCI  25
WESTMINSTER*   NOT AVBL

$$

MDZ501>502-181200-
WESTERN MARYLAND

CITY           SKY/WX    TMP DP  RH WIND       PRES   REMARKS
OAKLAND*       CLOUDY    32  32 100 CALM      29.91S VSB 1/2
CUMBERLAND*    NOT AVBL

$$

VAZ025>031-181200-
SHENANDOAH VALLEY

CITY           SKY/WX    TMP DP  RH WIND       PRES   REMARKS
WINCHESTER*    CLOUDY    30  30 100 CALM      30.04F FOG
FRONT ROYAL*   CLOUDY    32  32 100 E7        30.02S WCI  26
LURAY*         FOG       30  30 100 CALM      30.01F VSB 1/2
NEW MARKET*    CLOUDY    29  28  96 CALM      30.02R
WAYNESBORO*    MOCLDY    29  29  99 CALM      30.00S

$$

WVZ021-048>050-054>055-181200-
EASTERN WEST VIRGINIA PANHANDLE

CITY           SKY/WX    TMP DP  RH WIND       PRES   REMARKS
MARTINSBURG    CLOUDY    31  31 100 CALM      30.03F FOG

$$

VAZ036>039-050-181200-
CENTRAL FOOTHILLS

CITY           SKY/WX    TMP DP  RH WIND       PRES   REMARKS
CHARLOTTESVILL CLOUDY    33  30  88 CALM      30.03S FOG
CULPEPER*      FOG       33  32  96 CALM      30.06F VSB 1/2
ORANGE*        FOG       32  32 100 CALM      30.05F VSB 1/2
GORDONSVILLE*  FOG       32  32 100 CALM      30.04F VSB 1/2
WARRENTON*     FOG       33  31  93 CALM      30.05F VSB 1

$$

VAZ055>057-181200-
NORTH AND CENTRAL PIEDMONT

CITY           SKY/WX    TMP DP  RH WIND       PRES   REMARKS
FREDERICKSBRG* CLOUDY    33  33 100 CALM      30.06S FOG
STAFFORD*      CLOUDY    33  33 100 CALM      30.10S FOG

$$

NCZ024-NYZ072-PAZ021-071-VAZ022-071-181200-
OTHER REGIONAL OBSERVATIONS

CITY           SKY/WX    TMP DP  RH WIND       PRES   REMARKS
NEW YORK CITY  LGT SNOW  31  28  89 MISG      30.12F FOG
PHILADELPHIA   LGT SNOW  30  28  92 NE6       30.09F FOG     WCI  24
PITTSBURGH     DRZL/FOG  33  33 100 SW7       29.97S VSB 1/2 WCI  27
ROANOKE        CLOUDY    34  32  92 E3        30.06S FOG
RICHMOND       CLOUDY    39  34  82 W3        30.05F
RALEIGH        CLOUDY    44  41  89 SW7       30.09S

$$

ANZ530>537-181200-
MARINE OBSERVATIONS

STATION/POSITION TIME  TEMP    WIND        PRES
                       AIR SEA DIR/SP/G
                 (UTC) (F)     (DEG/KT/KT) (MB)
THOMAS PT LIGHT  1100   33 37   10/  5/  5 1019.4R
BALT KEY BRIDGE  1048   32      40/  3/  4 1018.8R
COVE POINT       1048   34      60/  2/  3 1018.6S
LEWISETTA        1042   37 39  320/  2/  2 1017.8S
SOLOMONS ISLAND  1048   35 41  360/  3/  3 1017.8S
PINEY POINT      1036           90/  3/  4   N/A

$$



 

View Past Reports for Baltimore MD/Washington, DC.

Products Courtesy of NOAA-NWS
NWS Information Parsing Script by Ken True at Saratoga Weather - Script by SE Lincoln Weather.